DW2738 Weather Reports


Display with metric or nautical units.
time (UTC)temp
F
wind
direction
speed
MPH
gust
MPH
rain 1hr
in
rain 24hr
in
rain mn
in
humidity
%
barometer
mb
20260507171930 62 270 2.0 2.0 0.00 0.30 0.30 60 1009.3
20260507171426 62 297 2.0 3.0 0.00 0.30 0.30 63 1009.5
20260507170924 62 12 0.0 3.0 0.00 0.30 0.30 58 1009.5
20260507170420 62 69 1.0 2.0 0.00 0.30 0.30 59 1009.3
20260507165917 62 201 0.0 3.0 0.00 0.30 0.30 59 1009.6
20260507165413 61 270 2.0 5.0 0.00 0.30 0.30 58 1009.8
20260507164908 61 243 0.0 3.0 0.00 0.30 0.30 59 1010.1
20260507164406 62 258 0.0 5.0 0.00 0.30 0.30 65 1010.1
20260507163903 61 270 2.0 3.0 0.00 0.30 0.30 60 1010.2
20260507163400 60 254 0.0 3.0 0.00 0.30 0.30 61 1010.3
20260507162857 62 352 0.0 3.0 0.00 0.30 0.30 62 1010.4
20260507162352 60 127 2.0 3.0 0.00 0.30 0.30 61 1010.4
20260507161850 60 241 2.0 3.0 0.00 0.30 0.30 62 1010.4
20260507161346 59 270 0.0 3.0 0.00 0.30 0.30 65 1010.4
20260507160843 60 29 2.0 5.0 0.00 0.30 0.30 66 1010.5
20260507160338 60 313 0.0 3.0 0.00 0.30 0.30 64 1010.4
20260507155835 60 180 0.0 2.0 0.00 0.30 0.30 67 1010.5
20260507155330 59 262 5.0 5.0 0.00 0.30 0.30 69 1010.5
20260507154827 59 356 4.0 5.0 0.00 0.30 0.30 71 1010.7
20260507154325 61 26 3.0 3.0 0.00 0.30 0.30 72 1010.8
20260507153821 60 270 2.0 3.0 0.00 0.30 0.30 71 1010.8
20260507153318 58 292 3.0 5.0 0.00 0.30 0.30 71 1010.8
20260507152815 58 166 0.0 3.0 0.00 0.30 0.30 71 1010.9
20260507152311 57 270 2.0 4.0 0.00 0.30 0.30 75 1011.0
20260507151807 57 270 2.0 4.0 0.00 0.30 0.30 75 1011.0
20260507151303 58 152 4.0 4.0 0.00 0.30 0.30 77 1010.8
20260507150801 57 270 2.0 4.0 0.00 0.30 0.30 75 1011.2
20260507150257 57 270 2.0 4.0 0.00 0.30 0.30 75 1011.2
20260507145753 57 324 0.0 5.0 0.00 0.30 0.30 79 1010.9
20260507145250 57 123 3.0 3.0 0.00 0.30 0.30 78 1010.9
20260507144747 56 41 2.0 4.0 0.00 0.30 0.30 79 1011.0
20260507144244 56 270 2.0 3.0 0.00 0.30 0.30 80 1011.3
20260507143741 56 279 0.0 3.0 0.00 0.30 0.30 83 1011.3
20260507143238 55 2 3.0 3.0 0.00 0.30 0.30 81 1011.4
20260507142734 55 121 4.0 4.0 0.00 0.30 0.30 83 1011.2
20260507142231 55 337 0.0 3.0 0.00 0.30 0.30 85 1011.5
20260507141727 54 169 1.0 3.0 0.00 0.30 0.30 84 1011.4
20260507141224 54 23 0.0 3.0 0.00 0.30 0.30 86 1011.3
20260507140720 54 303 0.0 3.0 0.00 0.30 0.30 85 1011.4
20260507140218 54 0 2.0 2.0 0.00 0.30 0.30 84 1011.3
20260507135714 54 294 1.0 3.0 0.00 0.30 0.30 85 1011.4
20260507135212 54 270 2.0 4.0 0.00 0.30 0.30 86 1011.5
20260507134708 54 213 2.0 2.0 0.00 0.30 0.30 88 1011.5
20260507134204 54 270 0.0 1.0 0.00 0.30 0.30 88 1011.6
20260507133700 53 328 0.0 1.0 0.00 0.30 0.30 90 1011.6
20260507133158 53 203 0.0 2.0 0.00 0.30 0.30 90 1011.5
20260507132655 53 354 3.0 4.0 0.00 0.30 0.30 90 1011.6
20260507132151 53 266 2.0 5.0 0.00 0.30 0.30 89 1011.3
20260507131648 53 212 1.0 2.0 0.00 0.30 0.30 92 1011.2
20260507131146 53 246 0.0 2.0 0.00 0.30 0.30 93 1011.3
20260507130642 52 356 2.0 3.0 0.00 0.30 0.30 94 1011.3
20260507130140 52 261 0.0 2.0 0.00 0.30 0.30 96 1011.6
20260507125639 51 275 2.0 3.0 0.00 0.30 0.30 98 1011.4
20260507125136 52 352 0.0 2.0 0.00 0.30 0.30 99 1011.4
20260507124632 52 279 0.0 1.0 0.00 0.30 0.30 99 1011.4
20260507124130 51 270 0.0 2.0 0.00 0.30 0.30 99 1011.3
20260507123628 51 5 1.0 1.0 0.00 0.30 0.30 99 1011.1
20260507123125 51 240 1.0 2.0 0.00 0.30 0.30 99 1011.3
20260507122620 51 262 0.0 2.0 0.00 0.30 0.30 99 1011.4
20260507122116 51 255 0.0 1.0 0.00 0.30 0.30 99 1011.4
20260507121612 51 251 0.0 1.0 0.00 0.30 0.30 99 1011.4
20260507121108 51 294 0.0 1.0 0.00 0.30 0.30 99 1011.3
20260507120604 51 264 1.0 2.0 0.00 0.30 0.30 99 1011.2
20260507120101 51 278 0.0 1.0 0.00 0.30 0.30 99 1011.0
20260507115557 51 0 0.0 2.0 0.00 0.30 0.30 99 1011.1
20260507115053 51 300 0.0 1.0 0.00 0.30 0.30 99 1011.1
20260507114549 51 261 0.0 1.0 0.00 0.30 0.30 99 1011.2
20260507114047 51 209 0.0 1.0 0.00 0.30 0.30 99 1011.1
20260507113543 51 209 0.0 1.0 0.00 0.30 0.30 99 1011.1
20260507113041 50 246 0.0 2.0 0.00 0.30 0.30 99 1011.3
20260507112538 50 241 2.0 2.0 0.00 0.30 0.30 99 1011.0
20260507112035 50 261 0.0 1.0 0.00 0.30 0.30 99 1010.8
20260507111532 50 246 0.0 1.0 0.00 0.30 0.30 99 1011.0
20260507111029 50 215 0.0 2.0 0.00 0.30 0.30 99 1010.9
20260507110525 50 203 0.0 1.0 0.00 0.30 0.30 99 1010.6
20260507110022 50 203 0.0 2.0 0.00 0.30 0.30 99 1010.6
20260507105519 50 323 0.0 2.0 0.00 0.30 0.30 99 1010.6
20260507105015 50 270 0.0 0.0 0.00 0.30 0.30 99 1010.6
20260507104513 50 172 0.0 0.0 0.00 0.30 0.30 99 1010.5
20260507104009 50 172 0.0 0.0 0.00 0.30 0.30 99 1010.7
20260507103505 50 261 0.0 0.0 0.00 0.30 0.30 99 1010.5
20260507103001 50 246 0.0 0.0 0.00 0.30 0.30 99 1010.5
20260507102458 50 285 0.0 1.0 0.00 0.30 0.30 99 1010.4
20260507101954 50 352 0.0 1.0 0.00 0.30 0.30 99 1010.6
20260507101449 50 270 0.0 0.0 0.00 0.30 0.30 99 1010.4
20260507100946 50 276 0.0 2.0 0.00 0.30 0.30 99 1010.3
20260507100444 50 353 0.0 1.0 0.00 0.30 0.30 99 1010.1
20260507095942 50 345 0.0 0.0 0.00 0.30 0.30 99 1009.8
20260507095439 51 251 0.0 0.0 0.00 0.30 0.30 99 1010.0
20260507094936 51 251 0.0 0.0 0.00 0.30 0.30 99 1009.9
20260507094432 50 200 0.0 1.0 0.00 0.30 0.30 99 1009.9
20260507093929 50 352 0.0 0.0 0.00 0.30 0.30 99 1009.8
20260507093427 50 352 0.0 0.0 0.00 0.30 0.30 99 1009.8
20260507092925 51 261 0.0 1.0 0.00 0.30 0.30 99 1009.8
20260507092421 51 279 0.0 1.0 0.00 0.30 0.30 99 1009.9
20260507091918 51 234 1.0 1.0 0.00 0.30 0.30 99 1009.7
20260507091414 51 261 0.0 2.0 0.00 0.30 0.30 99 1009.6
20260507090910 51 220 1.0 2.0 0.00 0.30 0.30 99 1009.7
20260507090407 51 289 1.0 2.0 0.00 0.30 0.30 99 1009.4
20260507085903 51 261 0.0 2.0 0.00 0.30 0.30 99 1009.5
20260507085400 51 180 0.0 3.0 0.00 0.30 0.30 99 1009.4
20260507084858 51 0 0.0 3.0 0.00 0.30 0.30 99 1009.7
20260507084354 51 270 2.0 2.0 0.00 0.30 0.30 99 1009.6
20260507083851 51 339 2.0 2.0 0.00 0.30 0.30 99 1009.4
20260507083348 51 180 0.0 2.0 0.00 0.30 0.30 99 1009.5
20260507082844 51 353 0.0 1.0 0.00 0.30 0.30 99 1009.2
20260507082339 51 337 0.0 1.0 0.00 0.30 0.30 99 1009.5
20260507081837 51 8 0.0 2.0 0.00 0.30 0.30 99 1009.3
20260507081333 51 262 0.0 0.0 0.00 0.30 0.30 99 1009.7
20260507080830 51 340 0.0 0.0 0.00 0.30 0.30 99 1009.5
20260507080326 51 261 0.0 2.0 0.00 0.30 0.30 99 1009.4
20260507075821 51 74 1.0 4.0 0.00 0.30 0.30 99 1009.3
20260507075318 51 230 2.0 3.0 0.02 0.30 0.30 99 1009.4
20260507074815 52 282 1.0 9.0 0.02 0.30 0.30 99 1009.0
20260507074312 53 270 0.0 4.0 0.00 0.30 0.30 99 1009.2
20260507073809 53 302 3.0 3.0 0.00 0.30 0.30 99 1009.0
20260507073306 53 246 0.0 3.0 0.00 0.30 0.30 99 1008.7
20260507072803 53 356 2.0 3.0 0.00 0.30 0.30 99 1008.7
20260507072301 54 0 0.0 2.0 0.00 0.30 0.30 99 1008.6
20260507071758 54 261 0.0 9.0 0.00 0.30 0.30 99 1009.1
20260507071254 54 274 3.0 4.0 0.00 0.30 0.30 99 1008.8
20260507070751 55 297 0.0 2.0 0.00 0.30 0.30 99 1008.3
20260507070248 55 249 0.0 1.0 0.05 0.30 0.30 99 1008.8
20260507065744 55 340 0.0 1.0 0.12 0.30 0.30 99 1008.7
20260507065241 55 355 1.0 3.0 0.28 0.29 0.29 99 1009.2
20260507064739 55 252 3.0 3.0 0.40 0.28 0.28 99 1009.5
20260507064238 55 270 3.0 3.0 0.09 0.22 0.22 99 1008.7
20260507063734 56 270 2.0 3.0 0.05 0.21 0.21 99 1008.5
20260507063231 56 283 0.0 2.0 0.12 0.21 0.21 99 1008.6
20260507062728 57 275 2.0 4.0 0.57 0.20 0.20 98 1008.5
20260507062225 57 278 1.0 5.0 0.76 0.19 0.19 98 1008.3
20260507061724 58 201 0.0 2.0 0.78 0.18 0.18 97 1008.5
20260507061221 60 285 1.0 3.0 0.21 0.07 0.07 97 1008.6
20260507060719 61 308 2.0 4.0 0.26 0.05 0.05 96 1008.4
20260507060215 62 352 0.0 4.0 0.17 0.03 0.03 96 1008.4
20260507055711 63 257 0.0 2.0 0.05 0.01 0.01 95 1008.1
20260507055207 63 264 2.0 2.0 0.02 0.00 0.00 95 1007.9
20260507054703 63 261 2.0 2.0 0.00 0.00 0.00 95 1008.0
20260507054200 63 261 2.0 2.0 0.00 0.00 0.00 95 1007.6
20260507053658 63 246 2.0 2.0 0.00 0.00 0.00 94 1007.9
20260507053156 63 257 1.0 3.0 0.00 0.00 0.00 94 1007.9
20260507052654 63 261 2.0 3.0 0.00 0.00 0.00 94 1008.0
20260507052150 63 257 1.0 2.0 0.00 0.00 0.00 94 1007.8
20260507051648 63 270 0.0 1.0 0.00 0.00 0.00 94 1007.3
20260507051144 63 254 0.0 1.0 0.00 0.00 0.00 94 1007.6
20260507050641 63 203 0.0 2.0 0.00 0.00 0.00 94 1007.8
20260507050138 63 253 2.0 2.0 0.00 0.00 0.00 94 1007.9
20260507045635 63 240 0.0 2.0 0.00 0.00 0.00 94 1008.1
20260507045131 63 246 0.0 2.0 0.00 0.00 0.00 94 1008.0
20260507044629 63 240 0.0 2.0 0.00 0.00 0.00 94 1007.9
20260507044125 63 262 0.0 2.0 0.00 0.00 0.00 94 1007.7
20260507043621 63 254 0.0 0.0 0.00 0.00 0.00 94 1007.8
20260507043118 63 262 0.0 1.0 0.00 0.00 0.00 95 1007.9
20260507042614 63 255 2.0 2.0 0.00 0.00 0.00 95 1008.3
20260507042110 63 249 0.0 2.0 0.00 0.00 0.00 95 1008.2
20260507041607 63 270 0.0 2.0 0.00 0.00 0.00 95 1008.2
20260507041104 62 254 0.0 0.0 0.00 0.00 0.00 95 1008.0
20260507040600 62 270 2.0 2.0 0.00 0.00 0.00 95 1008.0
20260507040057 62 246 2.0 2.0 0.00 0.00 0.00 95 1007.7
20260507035553 62 261 0.0 0.0 0.00 0.05 0.05 95 1008.0
20260507035049 62 215 0.0 0.0 0.00 0.05 0.05 95 1008.1
20260507034546 62 246 1.0 2.0 0.00 0.05 0.05 95 1008.3
20260507034044 62 270 0.0 1.0 0.00 0.05 0.05 95 1007.7
20260507033542 62 254 0.0 1.0 0.00 0.05 0.05 94 1008.0
20260507033039 62 215 1.0 2.0 0.00 0.05 0.05 94 1008.0
20260507032536 62 254 0.0 0.0 0.00 0.05 0.05 94 1007.8
20260507032032 63 261 0.0 0.0 0.00 0.05 0.05 94 1007.7
20260507031528 63 270 1.0 2.0 0.00 0.05 0.05 94 1007.7
20260507031026 63 254 0.0 2.0 0.00 0.05 0.05 93 1007.8
20260507030522 63 261 0.0 1.0 0.00 0.05 0.05 93 1008.0
20260507030020 63 263 1.0 2.0 0.00 0.05 0.05 93 1008.0
20260507025517 63 240 0.0 1.0 0.00 0.05 0.05 92 1007.8
20260507025014 64 206 0.0 2.0 0.00 0.05 0.05 92 1008.0
20260507024512 64 254 1.0 2.0 0.00 0.05 0.05 91 1007.9
20260507024008 64 270 0.0 3.0 0.00 0.05 0.05 91 1008.0
20260507023504 64 172 0.0 1.0 0.00 0.05 0.05 92 1008.2
20260507023002 64 259 2.0 2.0 0.00 0.05 0.05 93 1008.5
20260507022459 63 255 2.0 2.0 0.00 0.05 0.05 93 1008.3
20260507021954 63 203 0.0 0.0 0.00 0.05 0.05 93 1008.7
20260507021450 64 236 2.0 4.0 0.00 0.05 0.05 93 1008.4
20260507020947 63 194 1.0 3.0 0.00 0.05 0.05 93 1008.5
20260507020444 63 240 0.0 0.0 0.00 0.05 0.05 93 1008.5
20260507015941 63 209 0.0 2.0 0.00 0.05 0.05 92 1008.6
20260507015439 63 203 0.0 2.0 0.00 0.05 0.05 92 1008.7
20260507014936 63 187 0.0 2.0 0.00 0.05 0.05 92 1008.2
20260507014432 64 240 0.0 0.0 0.00 0.05 0.05 92 1008.6
20260507013929 64 254 0.0 2.0 0.00 0.05 0.05 92 1008.7
20260507013426 63 240 0.0 2.0 0.00 0.05 0.05 92 1008.7
20260507012923 63 234 0.0 0.0 0.00 0.05 0.05 92 1008.6
20260507012420 63 234 0.0 0.0 0.00 0.05 0.05 92 1008.6
20260507011917 63 234 0.0 2.0 0.00 0.05 0.05 92 1008.8
20260507011414 63 215 0.0 2.0 0.00 0.05 0.05 92 1008.8
20260507010913 63 248 2.0 2.0 0.00 0.05 0.05 91 1008.7
20260507010409 63 246 0.0 0.0 0.00 0.05 0.05 91 1008.6
20260507005906 64 195 0.0 2.0 0.00 0.05 0.05 91 1008.8
20260507005403 64 209 0.0 0.0 0.00 0.05 0.05 90 1008.4
20260507004900 64 209 0.0 1.0 0.00 0.05 0.05 90 1008.6
20260507004357 64 195 0.0 1.0 0.00 0.05 0.05 89 1008.5
20260507003854 65 212 2.0 2.0 0.00 0.05 0.05 88 1008.1
20260507003349 65 262 0.0 2.0 0.00 0.05 0.05 87 1008.0
20260507002845 66 270 0.0 2.0 0.00 0.05 0.05 87 1008.2
20260507002341 66 200 0.0 2.0 0.00 0.05 0.05 86 1008.1
20260507001838 66 246 0.0 2.0 0.00 0.05 0.05 85 1007.9
20260507001335 67 195 1.0 3.0 0.00 0.05 0.05 85 1008.0
20260507000831 67 220 2.0 2.0 0.00 0.05 0.05 84 1007.9
20260507000328 67 203 0.0 4.0 0.00 0.05 0.05 83 1007.8
20260506235824 67 165 0.0 4.0 0.00 0.05 0.05 83 1008.0
20260506235320 67 203 1.0 4.0 0.00 0.05 0.05 83 1007.8
20260506234816 68 240 2.0 2.0 0.00 0.05 0.05 82 1008.0
20260506234314 68 255 0.0 3.0 0.00 0.05 0.05 81 1008.0
20260506233812 69 206 2.0 3.0 0.00 0.05 0.05 80 1008.0
20260506233308 69 278 3.0 4.0 0.00 0.05 0.05 80 1007.9
20260506232805 69 165 2.0 5.0 0.00 0.05 0.05 79 1007.8
20260506232300 69 220 4.0 4.0 0.00 0.05 0.05 79 1007.7
20260506231757 69 251 3.0 4.0 0.00 0.05 0.05 79 1008.0
20260506231255 69 231 2.0 3.0 0.00 0.05 0.05 80 1007.9
20260506230752 69 235 3.0 7.0 0.00 0.05 0.05 79 1007.9
20260506230249 69 233 3.0 4.0 0.00 0.05 0.05 79 1008.2
20260506225745 69 247 5.0 6.0 0.00 0.05 0.05 79 1008.2
20260506225242 69 174 0.0 5.0 0.00 0.05 0.05 78 1008.1
20260506224738 70 238 3.0 3.0 0.00 0.05 0.05 79 1007.6
20260506224236 70 225 2.0 5.0 0.00 0.05 0.05 78 1007.5
20260506223732 70 357 5.0 5.0 0.00 0.05 0.05 78 1007.9
20260506223228 70 180 3.0 5.0 0.00 0.05 0.05 78 1007.7
20260506222725 70 213 2.0 5.0 0.00 0.05 0.05 77 1007.4
20260506222220 70 245 4.0 8.0 0.00 0.05 0.05 77 1007.6
20260506221719 71 222 3.0 7.0 0.00 0.05 0.05 76 1007.7
20260506221217 71 270 3.0 16.0 0.00 0.05 0.05 76 1007.8
20260506220713 71 237 2.0 6.0 0.00 0.05 0.05 76 1007.5
20260506215612 71 261 3.0 4.0 0.00 0.05 0.05 76 1007.5
20260506215107 71 261 3.0 4.0 0.00 0.05 0.05 76 1007.5
20260506214604 71 270 0.0 4.0 0.00 0.05 0.05 76 1007.7
20260506213804 71 210 0.0 5.0 0.00 0.05 0.05 75 1007.5
20260506213300 71 210 0.0 5.0 0.00 0.05 0.05 75 1007.5
20260506212758 71 209 1.0 5.0 0.00 0.05 0.05 76 1007.5
20260506212253 70 180 4.0 8.0 0.00 0.05 0.05 75 1007.4
20260506211748 71 225 0.0 4.0 0.00 0.05 0.05 77 1007.4
20260506211245 71 236 5.0 6.0 0.00 0.05 0.05 75 1007.3
20260506210742 71 273 3.0 3.0 0.00 0.05 0.05 77 1007.2
20260506210239 71 270 0.0 3.0 0.00 0.05 0.05 76 1007.2
20260506205736 71 265 4.0 4.0 0.00 0.05 0.05 76 1007.0
20260506205232 71 141 3.0 6.0 0.00 0.05 0.05 76 1007.0
20260506204729 70 221 2.0 7.0 0.00 0.05 0.05 76 1007.0
20260506204226 71 135 2.0 7.0 0.00 0.05 0.05 75 1007.0
20260506203724 71 135 2.0 7.0 0.00 0.05 0.05 75 1007.0
20260506203221 71 203 6.0 9.0 0.00 0.05 0.05 75 1006.8
20260506202719 71 162 3.0 5.0 0.00 0.05 0.05 76 1006.9
20260506201409 70 234 3.0 6.0 0.00 0.05 0.05 77 1007.2
20260506200905 70 234 3.0 6.0 0.00 0.05 0.05 77 1007.2
20260506200401 71 157 3.0 6.0 0.00 0.05 0.05 78 1007.1
20260506195858 70 225 4.0 8.0 0.00 0.05 0.05 77 1007.5
20260506195355 70 290 2.0 8.0 0.00 0.05 0.05 79 1007.5
20260506194851 69 330 2.0 6.0 0.00 0.05 0.05 79 1007.7
20260506194348 68 277 1.0 6.0 0.00 0.05 0.05 81 1007.9
20260506193846 68 246 5.0 6.0 0.00 0.05 0.05 81 1007.7
20260506193342 68 294 4.0 10.0 0.00 0.05 0.05 82 1007.9
20260506192839 68 204 4.0 7.0 0.00 0.05 0.05 82 1007.7
20260506192336 68 255 4.0 6.0 0.00 0.05 0.05 83 1007.8
20260506191833 67 189 5.0 7.0 0.00 0.05 0.05 83 1008.0
20260506191329 67 182 6.0 9.0 0.00 0.05 0.05 84 1007.8
20260506190826 67 263 3.0 5.0 0.00 0.05 0.05 86 1007.8
20260506190322 67 260 4.0 11.0 0.00 0.05 0.05 84 1007.9
20260506185819 66 178 9.0 13.0 0.00 0.05 0.05 88 1008.0
20260506185316 66 115 6.0 7.0 0.00 0.05 0.05 89 1008.3
20260506184813 65 264 5.0 6.0 0.00 0.05 0.05 89 1008.6
20260506184311 65 201 3.0 5.0 0.00 0.05 0.05 91 1008.5
20260506183808 65 121 3.0 5.0 0.00 0.05 0.05 91 1008.4
20260506183303 65 75 0.0 5.0 0.00 0.05 0.05 92 1008.3
20260506182800 64 225 4.0 8.0 0.00 0.05 0.05 92 1008.4
20260506182257 64 156 2.0 5.0 0.00 0.05 0.05 94 1008.4
20260506181755 64 191 2.0 5.0 0.00 0.05 0.05 95 1008.7
20260506181253 64 251 1.0 6.0 0.02 0.05 0.05 96 1008.6
20260506180750 63 228 0.0 4.0 0.09 0.05 0.05 95 1008.6
20260506180245 63 152 2.0 9.0 0.09 0.05 0.05 94 1008.9
20260506175742 63 216 5.0 6.0 0.05 0.04 0.04 93 1009.0
20260506175239 64 205 3.0 10.0 0.12 0.03 0.03 91 1008.7
20260506174737 64 255 3.0 9.0 0.12 0.02 0.02 90 1008.9
20260506174233 66 206 3.0 8.0 0.07 0.01 0.01 85 1009.0
20260506173732 67 291 0.0 5.0 0.00 0.00 0.00 81 1008.7
20260506173228 69 198 5.0 9.0 0.00 0.00 0.00 74 1009.1
20260506172724 70 180 0.0 7.0 0.00 0.00 0.00 72 1009.1